Time,TemperatureF,DewpointF,PressureIn,WindDirection,WindDirectionDegrees,WindSpeedMPH,WindSpeedGustMPH,Humidity,HourlyPrecipIn,Conditions,Clouds,dailyrainin,SolarRadiationWatts/m^2,SoftwareType,DateUTC
2013-02-05 00:02:00,44.8,21.3,29.93,North,360,10.4,10.4,39,0.00,CLR,,0.00,0.0,WeatherDisplay:10.37,2013-02-05 08:02:00,
2013-02-05 00:07:00,45.0,21.5,29.93,North,360,6.9,6.9,39,0.00,CLR,,0.00,0.0,WeatherDisplay:10.37,2013-02-05 08:07:00,
2013-02-05 00:12:00,45.0,21.5,29.93,North,360,12.0,12.0,39,0.00,CLR,,0.00,0.0,WeatherDisplay:10.37,2013-02-05 08:12:00,
2013-02-05 00:17:00,45.0,21.5,29.93,North,360,9.2,9.2,39,0.00,CLR,,0.00,0.0,WeatherDisplay:10.37,2013-02-05 08:17:00,
2013-02-05 00:22:00,45.0,21.5,29.93,North,360,9.2,9.2,39,0.00,CLR,,0.00,0.0,WeatherDisplay:10.37,2013-02-05 08:22:00,
2013-02-05 00:27:00,44.9,21.4,29.93,North,360,5.8,5.8,39,0.00,CLR,,0.00,0.0,WeatherDisplay:10.37,2013-02-05 08:27:00,
2013-02-05 00:32:00,44.8,21.3,29.93,North,360,6.9,6.9,39,0.00,CLR,,0.00,0.0,WeatherDisplay:10.37,2013-02-05 08:32:00,
2013-02-05 00:37:00,44.7,21.2,29.93,North,360,9.2,9.2,39,0.00,CLR,,0.00,0.0,WeatherDisplay:10.37,2013-02-05 08:37:00,
2013-02-05 00:42:00,44.6,21.1,29.93,North,360,8.0,8.0,39,0.00,CLR,,0.00,0.0,WeatherDisplay:10.37,2013-02-05 08:42:00,
2013-02-05 00:47:00,44.6,21.1,29.93,North,360,8.1,8.1,39,0.00,CLR,,0.00,0.0,WeatherDisplay:10.37,2013-02-05 08:47:00,
2013-02-05 00:52:00,44.6,21.1,29.93,North,360,8.1,8.1,39,0.00,CLR,,0.00,0.0,WeatherDisplay:10.37,2013-02-05 08:52:00,
2013-02-05 00:57:00,44.5,21.0,29.93,North,360,10.4,10.4,39,0.00,CLR,,0.00,0.0,WeatherDisplay:10.37,2013-02-05 08:57:00,
2013-02-05 01:02:00,44.5,21.0,29.93,North,360,9.2,9.2,39,0.00,CLR,,0.00,0.0,WeatherDisplay:10.37,2013-02-05 09:02:00,
2013-02-05 01:07:00,44.5,21.0,29.93,North,360,10.4,10.4,39,0.00,CLR,,0.00,0.0,WeatherDisplay:10.37,2013-02-05 09:07:00,
2013-02-05 01:12:00,44.5,21.0,29.92,North,360,10.4,10.4,39,0.00,CLR,,0.00,0.0,WeatherDisplay:10.37,2013-02-05 09:12:00,
2013-02-05 01:17:00,44.5,21.0,29.92,North,360,9.2,9.2,39,0.00,CLR,,0.00,0.0,WeatherDisplay:10.37,2013-02-05 09:17:00,
2013-02-05 01:22:00,44.5,21.0,29.92,North,360,9.2,9.2,39,0.00,CLR,,0.00,0.0,WeatherDisplay:10.37,2013-02-05 09:22:00,
2013-02-05 01:27:00,44.5,20.4,29.92,North,360,9.2,9.2,38,0.00,CLR,,0.00,0.0,WeatherDisplay:10.37,2013-02-05 09:27:00,
2013-02-05 01:32:00,44.5,20.4,29.92,North,360,6.9,6.9,38,0.00,CLR,,0.00,0.0,WeatherDisplay:10.37,2013-02-05 09:32:00,
2013-02-05 01:37:00,44.5,20.4,29.92,North,360,7.0,7.0,38,0.00,CLR,,0.00,0.0,WeatherDisplay:10.37,2013-02-05 09:37:00,
2013-02-05 01:42:00,44.6,20.5,29.93,North,360,9.2,9.2,38,0.00,CLR,,0.00,0.0,WeatherDisplay:10.37,2013-02-05 09:42:00,
2013-02-05 01:47:00,44.7,21.2,29.93,North,360,10.4,10.4,39,0.00,CLR,,0.00,0.0,WeatherDisplay:10.37,2013-02-05 09:47:00,
2013-02-05 01:52:00,44.8,20.7,29.93,North,360,9.2,9.2,38,0.00,CLR,,0.00,0.0,WeatherDisplay:10.37,2013-02-05 09:52:00,
2013-02-05 01:57:00,44.9,20.8,29.93,North,360,9.2,9.2,38,0.00,CLR,,0.00,0.0,WeatherDisplay:10.37,2013-02-05 09:57:00,
2013-02-05 02:02:00,45.0,21.5,29.93,North,360,4.6,4.6,39,0.00,CLR,,0.00,0.0,WeatherDisplay:10.37,2013-02-05 10:02:00,
2013-02-05 02:07:00,44.9,21.4,29.93,North,360,4.0,4.0,39,0.00,CLR,,0.00,0.0,WeatherDisplay:10.37,2013-02-05 10:07:00,
2013-02-05 02:12:00,44.8,21.3,29.93,North,360,5.8,5.8,39,0.00,CLR,,0.00,0.0,WeatherDisplay:10.37,2013-02-05 10:12:00,
2013-02-05 02:17:00,44.7,21.2,29.93,North,360,7.0,7.0,39,0.00,CLR,,0.00,0.0,WeatherDisplay:10.37,2013-02-05 10:17:00,
2013-02-05 02:22:00,44.6,20.5,29.93,North,360,4.0,4.0,38,0.00,CLR,,0.00,0.0,WeatherDisplay:10.37,2013-02-05 10:22:00,
2013-02-05 02:27:00,44.4,21.0,29.93,North,360,6.0,6.0,39,0.00,CLR,,0.00,0.0,WeatherDisplay:10.37,2013-02-05 10:27:00,
2013-02-05 02:32:00,44.3,20.9,29.92,North,360,5.0,5.0,39,0.00,CLR,,0.00,0.0,WeatherDisplay:10.37,2013-02-05 10:32:00,
2013-02-05 02:37:00,44.2,20.8,29.92,North,360,4.0,4.0,39,0.00,CLR,,0.00,0.0,WeatherDisplay:10.37,2013-02-05 10:37:00,
2013-02-05 02:42:00,44.0,20.6,29.92,North,360,3.5,3.5,39,0.00,CLR,,0.00,0.0,WeatherDisplay:10.37,2013-02-05 10:42:00,
2013-02-05 02:47:00,43.9,20.5,29.92,North,360,3.0,3.0,39,0.00,CLR,,0.00,0.0,WeatherDisplay:10.37,2013-02-05 10:47:00,
2013-02-05 02:52:00,43.7,20.3,29.92,North,360,9.0,9.0,39,0.00,CLR,,0.00,0.0,WeatherDisplay:10.37,2013-02-05 10:52:00,
2013-02-05 02:57:00,43.6,20.2,29.92,North,360,6.9,6.9,39,0.00,CLR,,0.00,0.0,WeatherDisplay:10.37,2013-02-05 10:57:00,
2013-02-05 03:02:00,43.6,20.2,29.91,North,360,6.0,6.0,39,0.00,CLR,,0.00,0.0,WeatherDisplay:10.37,2013-02-05 11:02:00,
2013-02-05 03:07:00,43.6,19.6,29.91,North,360,5.8,5.8,38,0.00,CLR,,0.00,0.0,WeatherDisplay:10.37,2013-02-05 11:07:00,
2013-02-05 03:12:00,43.6,19.6,29.91,North,360,3.5,3.5,38,0.00,CLR,,0.00,0.0,WeatherDisplay:10.37,2013-02-05 11:12:00,
2013-02-05 03:17:00,43.7,19.7,29.91,North,360,4.0,4.0,38,0.00,CLR,,0.00,0.0,WeatherDisplay:10.37,2013-02-05 11:17:00,
2013-02-05 03:22:00,43.7,19.1,29.91,North,360,5.8,5.8,37,0.00,CLR,,0.00,0.0,WeatherDisplay:10.37,2013-02-05 11:22:00,
2013-02-05 03:27:00,43.8,19.2,29.91,North,360,3.5,3.5,37,0.00,CLR,,0.00,0.0,WeatherDisplay:10.37,2013-02-05 11:27:00,
2013-02-05 03:32:00,43.8,19.2,29.91,North,360,5.0,5.0,37,0.00,CLR,,0.00,0.0,WeatherDisplay:10.37,2013-02-05 11:32:00,
2013-02-05 03:37:00,43.9,19.3,29.91,North,360,3.5,3.5,37,0.00,CLR,,0.00,0.0,WeatherDisplay:10.37,2013-02-05 11:37:00,
2013-02-05 03:42:00,43.9,19.9,29.91,North,360,2.3,2.3,38,0.00,CLR,,0.00,0.0,WeatherDisplay:10.37,2013-02-05 11:42:00,
2013-02-05 03:47:00,43.8,19.8,29.91,North,360,3.0,3.0,38,0.00,CLR,,0.00,0.0,WeatherDisplay:10.37,2013-02-05 11:47:00,
2013-02-05 03:52:00,43.6,20.2,29.91,North,360,1.1,1.1,39,0.00,CLR,,0.00,0.0,WeatherDisplay:10.37,2013-02-05 11:52:00,
2013-02-05 03:57:00,43.5,20.2,29.91,North,360,1.1,1.1,39,0.00,CLR,,0.00,0.0,WeatherDisplay:10.37,2013-02-05 11:57:00,
2013-02-05 04:02:00,43.4,20.1,29.91,North,360,2.0,2.0,39,0.00,CLR,,0.00,0.0,WeatherDisplay:10.37,2013-02-05 12:02:00,
2013-02-05 04:07:00,43.3,20.0,29.91,North,360,2.3,2.3,39,0.00,CLR,,0.00,0.0,WeatherDisplay:10.37,2013-02-05 12:07:00,
2013-02-05 04:12:00,43.1,19.8,29.91,North,360,1.1,0.0,39,0.00,CLR,,0.00,0.0,WeatherDisplay:10.37,2013-02-05 12:12:00,
2013-02-05 04:17:00,42.9,19.6,29.91,North,360,2.3,0.0,39,0.00,CLR,,0.00,0.0,WeatherDisplay:10.37,2013-02-05 12:17:00,
2013-02-05 04:22:00,42.8,19.5,29.91,North,360,1.1,1.1,39,0.00,CLR,,0.00,0.0,WeatherDisplay:10.37,2013-02-05 12:22:00,
2013-02-05 04:27:00,42.6,19.3,29.91,North,360,1.1,1.1,39,0.00,CLR,,0.00,0.0,WeatherDisplay:10.37,2013-02-05 12:27:00,
2013-02-05 04:32:00,42.5,19.3,29.90,North,360,3.5,3.5,39,0.00,CLR,,0.00,0.0,WeatherDisplay:10.37,2013-02-05 12:32:00,
2013-02-05 04:37:00,42.4,19.2,29.90,North,360,1.1,1.1,39,0.00,CLR,,0.00,0.0,WeatherDisplay:10.37,2013-02-05 12:37:00,
2013-02-05 04:42:00,42.3,19.7,29.90,North,360,1.1,1.1,40,0.00,CLR,,0.00,0.0,WeatherDisplay:10.37,2013-02-05 12:42:00,
2013-02-05 04:47:00,42.2,19.6,29.90,North,360,2.3,2.3,40,0.00,CLR,,0.00,0.0,WeatherDisplay:10.37,2013-02-05 12:47:00,
2013-02-05 04:52:00,42.2,19.6,29.90,North,360,0.0,0.0,40,0.00,CLR,,0.00,0.0,WeatherDisplay:10.37,2013-02-05 12:52:00,
2013-02-05 04:57:00,42.1,19.5,29.90,North,360,0.0,0.0,40,0.00,CLR,,0.00,0.0,WeatherDisplay:10.37,2013-02-05 12:57:00,
2013-02-05 05:02:00,42.1,18.9,29.90,North,360,0.0,0.0,39,0.00,CLR,,0.00,0.0,WeatherDisplay:10.37,2013-02-05 13:02:00,
2013-02-05 05:07:00,42.2,19.6,29.90,North,360,0.0,0.0,40,0.00,CLR,,0.00,0.0,WeatherDisplay:10.37,2013-02-05 13:07:00,
2013-02-05 05:12:00,42.1,19.5,29.90,North,360,0.0,0.0,40,0.00,CLR,,0.00,0.0,WeatherDisplay:10.37,2013-02-05 13:12:00,
2013-02-05 05:17:00,42.0,19.4,29.90,North,360,2.3,0.0,40,0.00,CLR,,0.00,0.0,WeatherDisplay:10.37,2013-02-05 13:17:00,
2013-02-05 05:22:00,41.8,19.2,29.90,North,360,3.5,3.5,40,0.00,CLR,,0.00,0.0,WeatherDisplay:10.37,2013-02-05 13:22:00,
2013-02-05 05:27:00,41.7,19.7,29.90,North,360,3.5,3.5,41,0.00,CLR,,0.00,0.0,WeatherDisplay:10.37,2013-02-05 13:27:00,
2013-02-05 05:32:00,41.6,19.6,29.90,North,360,2.3,2.3,41,0.00,CLR,,0.00,0.0,WeatherDisplay:10.37,2013-02-05 13:32:00,
2013-02-05 05:37:00,41.5,19.5,29.90,North,360,3.5,3.5,41,0.00,CLR,,0.00,0.0,WeatherDisplay:10.37,2013-02-05 13:37:00,
2013-02-05 05:42:00,41.3,19.9,29.90,North,360,2.3,2.3,42,0.00,CLR,,0.00,0.0,WeatherDisplay:10.37,2013-02-05 13:42:00,
2013-02-05 05:47:00,41.2,19.8,29.90,North,360,3.5,3.5,42,0.00,CLR,,0.00,0.0,WeatherDisplay:10.37,2013-02-05 13:47:00,
2013-02-05 05:52:00,41.1,19.7,29.90,North,360,3.5,3.5,42,0.00,CLR,,0.00,0.0,WeatherDisplay:10.37,2013-02-05 13:52:00,
2013-02-05 05:57:00,41.1,19.7,29.90,North,360,5.0,5.0,42,0.00,CLR,,0.00,0.0,WeatherDisplay:10.37,2013-02-05 13:57:00,
2013-02-05 06:02:00,41.1,19.7,29.90,North,360,4.0,4.0,42,0.00,CLR,,0.00,0.0,WeatherDisplay:10.37,2013-02-05 14:02:00,
2013-02-05 06:07:00,41.1,19.7,29.90,North,360,3.5,3.5,42,0.00,CLR,,0.00,0.0,WeatherDisplay:10.37,2013-02-05 14:07:00,
2013-02-05 06:12:00,41.0,19.6,29.90,North,360,1.1,1.1,42,0.00,CLR,,0.00,0.0,WeatherDisplay:10.37,2013-02-05 14:12:00,
2013-02-05 06:17:00,40.9,19.5,29.89,North,360,2.3,2.3,42,0.00,CLR,,0.00,0.0,WeatherDisplay:10.37,2013-02-05 14:17:00,
2013-02-05 06:22:00,40.7,19.4,29.90,North,360,3.5,3.5,42,0.00,CLR,,0.00,0.0,WeatherDisplay:10.37,2013-02-05 14:22:00,
2013-02-05 06:27:00,40.5,19.7,29.90,North,360,1.1,1.1,43,0.00,CLR,,0.00,0.0,WeatherDisplay:10.37,2013-02-05 14:27:00,
2013-02-05 06:32:00,40.4,19.6,29.90,North,360,0.0,0.0,43,0.00,CLR,,0.00,0.0,WeatherDisplay:10.37,2013-02-05 14:32:00,
2013-02-05 06:37:00,40.1,19.4,29.90,North,360,3.5,3.5,43,0.00,CLR,,0.00,0.0,WeatherDisplay:10.37,2013-02-05 14:37:00,
2013-02-05 06:42:00,39.9,19.2,29.90,North,360,3.5,3.5,43,0.00,CLR,,0.00,0.0,WeatherDisplay:10.37,2013-02-05 14:42:00,
2013-02-05 06:47:00,39.9,19.2,29.90,North,360,2.3,2.3,43,0.00,CLR,,0.00,0.0,WeatherDisplay:10.37,2013-02-05 14:47:00,
2013-02-05 06:52:00,39.9,19.2,29.90,North,360,1.1,1.1,43,0.00,CLR,,0.00,0.0,WeatherDisplay:10.37,2013-02-05 14:52:00,
2013-02-05 06:57:00,39.8,19.6,29.90,North,360,2.3,2.3,44,0.00,CLR,,0.00,0.0,WeatherDisplay:10.37,2013-02-05 14:57:00,
2013-02-05 07:02:00,39.7,19.5,29.90,North,360,2.3,2.3,44,0.00,CLR,,0.00,0.0,WeatherDisplay:10.37,2013-02-05 15:02:00,
2013-02-05 07:07:00,39.6,20.0,29.90,North,360,4.0,4.0,45,0.00,CLR,,0.00,0.0,WeatherDisplay:10.37,2013-02-05 15:07:00,
2013-02-05 07:12:00,39.6,20.0,29.90,North,360,4.0,4.0,45,0.00,CLR,,0.00,0.0,WeatherDisplay:10.37,2013-02-05 15:12:00,
2013-02-05 07:17:00,39.8,20.2,29.90,North,360,2.3,0.0,45,0.00,OVC,,0.00,0.0,WeatherDisplay:10.37,2013-02-05 15:17:00,
2013-02-05 07:22:00,39.8,19.6,29.90,North,360,5.8,5.8,44,0.00,FEW,,0.00,5.0,WeatherDisplay:10.37,2013-02-05 15:22:00,
2013-02-05 07:27:00,39.9,20.3,29.90,North,360,5.0,5.0,45,0.00,SCT,,0.00,7.0,WeatherDisplay:10.37,2013-02-05 15:27:00,
2013-02-05 07:32:00,40.0,20.3,29.89,North,360,5.0,5.0,45,0.00,SCT,,0.00,12.0,WeatherDisplay:10.37,2013-02-05 15:32:00,
2013-02-05 07:37:00,40.2,20.0,29.89,North,360,3.5,3.5,44,0.00,SCT,,0.00,19.0,WeatherDisplay:10.37,2013-02-05 15:37:00,
2013-02-05 07:42:00,40.4,20.7,29.89,North,360,3.5,3.5,45,0.00,SCT,,0.00,19.0,WeatherDisplay:10.37,2013-02-05 15:42:00,
2013-02-05 07:47:00,40.4,20.7,29.89,North,360,0.0,0.0,45,0.00,SCT,,0.00,28.0,WeatherDisplay:10.37,2013-02-05 15:47:00,
2013-02-05 07:52:00,40.4,20.7,29.89,North,360,0.0,0.0,45,0.00,SCT,,0.00,32.0,WeatherDisplay:10.37,2013-02-05 15:52:00,
2013-02-05 07:57:00,40.4,20.7,29.89,North,360,0.0,0.0,45,0.00,SCT,,0.00,37.0,WeatherDisplay:10.37,2013-02-05 15:57:00,
2013-02-05 08:02:00,40.3,20.6,29.90,North,360,0.0,0.0,45,0.00,SCT,,0.00,37.0,WeatherDisplay:10.37,2013-02-05 16:02:00,
2013-02-05 08:07:00,40.2,20.5,29.90,North,360,0.0,0.0,45,0.00,SCT,,0.00,44.0,WeatherDisplay:10.37,2013-02-05 16:07:00,
2013-02-05 08:12:00,40.3,20.6,29.90,North,360,0.0,0.0,45,0.00,SCT,,0.00,49.0,WeatherDisplay:10.37,2013-02-05 16:12:00,
2013-02-05 08:17:00,40.3,20.6,29.90,North,360,4.0,4.0,45,0.00,SCT,,0.00,60.0,WeatherDisplay:10.37,2013-02-05 16:17:00,
2013-02-05 08:22:00,40.6,20.9,29.90,North,360,3.5,3.5,45,0.00,SCT,,0.00,54.0,WeatherDisplay:10.37,2013-02-05 16:22:00,
2013-02-05 08:27:00,40.9,21.2,29.90,North,360,4.0,4.0,45,0.00,SCT,,0.00,54.0,WeatherDisplay:10.37,2013-02-05 16:27:00,
2013-02-05 08:32:00,41.1,20.8,29.91,North,360,4.6,4.6,44,0.00,SCT,,0.00,77.0,WeatherDisplay:10.37,2013-02-05 16:32:00,
2013-02-05 08:37:00,41.4,21.1,29.90,North,360,5.0,5.0,44,0.00,SCT,,0.00,77.0,WeatherDisplay:10.37,2013-02-05 16:37:00,
2013-02-05 08:42:00,41.6,20.7,29.90,North,360,4.6,4.6,43,0.00,SCT,,0.00,58.0,WeatherDisplay:10.37,2013-02-05 16:42:00,
2013-02-05 08:47:00,41.7,20.8,29.90,North,360,2.3,2.6,43,0.00,SCT,,0.00,79.0,WeatherDisplay:10.37,2013-02-05 16:47:00,
2013-02-05 08:52:00,41.8,20.9,29.90,North,360,7.0,7.0,43,0.00,SCT,,0.00,120.0,WeatherDisplay:10.37,2013-02-05 16:52:00,
2013-02-05 08:57:00,42.0,21.1,29.90,North,360,5.8,5.8,43,0.00,SCT,,0.00,102.0,WeatherDisplay:10.37,2013-02-05 16:57:00,
2013-02-05 09:02:00,42.1,21.2,29.90,North,360,4.0,4.0,43,0.00,SCT,,0.00,142.0,WeatherDisplay:10.37,2013-02-05 17:02:00,
2013-02-05 09:07:00,42.3,21.9,29.91,North,360,3.5,3.5,44,0.00,SCT,,0.00,130.0,WeatherDisplay:10.37,2013-02-05 17:07:00,
2013-02-05 09:12:00,42.4,22.0,29.91,North,360,4.6,4.6,44,0.00,SCT,,0.00,130.0,WeatherDisplay:10.37,2013-02-05 17:12:00,
2013-02-05 09:17:00,42.5,22.1,29.91,North,360,5.0,5.0,44,0.00,SCT,,0.00,199.0,WeatherDisplay:10.37,2013-02-05 17:17:00,
2013-02-05 09:22:00,42.9,22.5,29.91,North,360,3.5,3.5,44,0.00,FEW,,0.00,199.0,WeatherDisplay:10.37,2013-02-05 17:22:00,
2013-02-05 09:27:00,43.5,25.6,29.91,North,360,13.0,13.0,49,0.00,CLR,,0.00,311.0,WeatherDisplay:10.37,2013-02-05 17:27:00,
2013-02-05 09:32:00,44.3,27.3,29.91,North,360,13.8,13.8,51,0.00,CLR,,0.00,311.0,WeatherDisplay:10.37,2013-02-05 17:32:00,
2013-02-05 09:37:00,45.1,28.0,29.91,North,360,15.0,15.0,51,0.00,CLR,,0.00,330.0,WeatherDisplay:10.37,2013-02-05 17:37:00,
2013-02-05 09:42:00,45.6,28.0,29.91,North,360,11.5,11.5,50,0.00,CLR,,0.00,336.0,WeatherDisplay:10.37,2013-02-05 17:42:00,
2013-02-05 09:47:00,46.0,28.9,29.91,North,360,16.0,16.0,51,0.00,CLR,,0.00,350.0,WeatherDisplay:10.37,2013-02-05 17:47:00,
2013-02-05 09:52:00,46.1,29.0,29.91,North,360,10.0,10.0,51,0.00,CLR,,0.00,353.0,WeatherDisplay:10.37,2013-02-05 17:52:00,
2013-02-05 09:57:00,46.3,29.6,29.91,North,360,11.5,11.5,52,0.00,CLR,,0.00,362.0,WeatherDisplay:10.37,2013-02-05 17:57:00,
2013-02-05 10:02:00,46.5,28.8,29.91,North,360,13.8,13.8,50,0.00,CLR,,0.00,373.0,WeatherDisplay:10.37,2013-02-05 18:02:00,
2013-02-05 10:07:00,46.6,28.9,29.91,North,360,11.5,11.5,50,0.00,CLR,,0.00,345.0,WeatherDisplay:10.37,2013-02-05 18:07:00,
2013-02-05 10:12:00,46.7,29.5,29.91,North,360,11.5,11.5,51,0.00,CLR,,0.00,512.0,WeatherDisplay:10.37,2013-02-05 18:12:00,
2013-02-05 10:17:00,46.7,29.5,29.91,North,360,17.3,17.3,51,0.00,CLR,,0.00,512.0,WeatherDisplay:10.37,2013-02-05 18:17:00,
2013-02-05 10:22:00,46.7,30.5,29.91,North,360,19.6,19.6,53,0.00,CLR,,0.00,512.0,WeatherDisplay:10.37,2013-02-05 18:22:00,
2013-02-05 10:27:00,46.7,30.9,29.91,North,360,16.1,16.1,54,0.00,CLR,,0.00,288.0,WeatherDisplay:10.37,2013-02-05 18:27:00,
2013-02-05 10:32:00,46.5,31.2,29.91,North,360,15.0,15.0,55,0.00,FEW,,0.00,243.0,WeatherDisplay:10.37,2013-02-05 18:32:00,
2013-02-05 10:37:00,46.2,30.9,29.91,North,360,20.7,20.7,55,0.00,SCT,,0.00,202.0,WeatherDisplay:10.37,2013-02-05 18:37:00,
2013-02-05 10:42:00,46.0,31.2,29.91,North,360,15.0,15.0,56,0.00,SCT,,0.00,202.0,WeatherDisplay:10.37,2013-02-05 18:42:00,
2013-02-05 10:47:00,45.9,31.1,29.91,North,360,16.1,16.1,56,0.00,SCT,,0.00,179.0,WeatherDisplay:10.37,2013-02-05 18:47:00,
2013-02-05 10:52:00,45.8,31.4,29.91,North,360,20.0,20.0,57,0.00,SCT,,0.00,466.0,WeatherDisplay:10.37,2013-02-05 18:52:00,
2013-02-05 10:57:00,46.0,31.6,29.90,North,360,13.8,13.8,57,0.00,CLR,,0.00,415.0,WeatherDisplay:10.37,2013-02-05 18:57:00,
2013-02-05 11:02:00,46.3,31.4,29.91,North,360,19.6,19.6,56,0.00,CLR,,0.00,496.0,WeatherDisplay:10.37,2013-02-05 19:02:00,
2013-02-05 11:07:00,46.4,30.6,29.91,North,360,19.6,19.6,54,0.00,CLR,,0.00,496.0,WeatherDisplay:10.37,2013-02-05 19:07:00,
2013-02-05 11:12:00,46.3,30.1,29.91,North,360,21.0,21.0,53,0.00,CLR,,0.00,496.0,WeatherDisplay:10.37,2013-02-05 19:12:00,
2013-02-05 11:17:00,46.0,29.3,29.91,North,360,21.9,21.9,52,0.00,CLR,,0.00,176.0,WeatherDisplay:10.37,2013-02-05 19:17:00,
2013-02-05 11:22:00,45.6,29.0,29.91,North,360,20.7,20.7,52,0.00,SCT,,0.00,178.0,WeatherDisplay:10.37,2013-02-05 19:22:00,
2013-02-05 11:28:00,45.4,28.8,29.91,North,360,18.4,18.4,52,0.00,SCT,,0.00,130.0,WeatherDisplay:10.37,2013-02-05 19:28:00,
2013-02-05 11:33:00,45.3,28.7,29.91,North,360,21.0,21.0,52,0.00,SCT,,0.00,197.0,WeatherDisplay:10.37,2013-02-05 19:33:00,
2013-02-05 11:38:00,45.3,27.7,29.91,North,360,20.7,20.7,50,0.00,SCT,,0.00,197.0,WeatherDisplay:10.37,2013-02-05 19:38:00,
2013-02-05 11:43:00,45.6,27.0,29.92,North,360,26.5,26.5,48,0.00,SCT,,0.00,197.0,WeatherDisplay:10.37,2013-02-05 19:43:00,
2013-02-05 11:48:00,45.9,27.3,29.92,North,360,20.0,20.0,48,0.00,SCT,,0.00,413.0,WeatherDisplay:10.37,2013-02-05 19:48:00,
2013-02-05 11:53:00,45.8,27.2,29.92,North,360,18.4,18.4,48,0.00,FEW,,0.00,413.0,WeatherDisplay:10.37,2013-02-05 19:53:00,
2013-02-05 11:58:00,45.6,28.0,29.92,North,360,13.8,13.8,50,0.00,FEW,,0.00,253.0,WeatherDisplay:10.37,2013-02-05 19:58:00,
2013-02-05 12:03:00,45.6,28.5,29.92,North,360,15.0,15.0,51,0.00,SCT,,0.00,253.0,WeatherDisplay:10.37,2013-02-05 20:03:00,
2013-02-05 12:08:00,45.5,28.9,29.92,North,360,17.0,17.0,52,0.00,SCT,,0.00,253.0,WeatherDisplay:10.37,2013-02-05 20:08:00,
2013-02-05 12:13:00,45.4,28.3,29.92,North,360,17.0,17.0,51,0.00,SCT,,0.00,327.0,WeatherDisplay:10.37,2013-02-05 20:13:00,
2013-02-05 12:18:00,45.2,28.6,29.92,North,360,26.5,26.5,52,0.00,SCT,,0.00,207.0,WeatherDisplay:10.37,2013-02-05 20:18:00,
2013-02-05 12:23:00,44.6,29.0,29.92,North,360,19.6,19.6,54,0.00,SCT,,0.00,202.0,WeatherDisplay:10.37,2013-02-05 20:23:00,
2013-02-05 12:28:00,44.5,29.8,29.91,North,360,15.0,15.0,56,0.00,SCT,,0.00,557.0,WeatherDisplay:10.37,2013-02-05 20:28:00,
2013-02-05 12:33:00,44.7,30.8,29.91,North,360,15.0,15.0,58,0.00,FEW,,0.00,570.0,WeatherDisplay:10.37,2013-02-05 20:33:00,
2013-02-05 12:38:00,44.8,30.9,29.91,North,360,11.5,11.5,58,0.00,CLR,,0.00,570.0,WeatherDisplay:10.37,2013-02-05 20:38:00,
2013-02-05 12:43:00,45.0,30.7,29.90,North,360,15.0,15.0,57,0.00,CLR,,0.00,520.0,WeatherDisplay:10.37,2013-02-05 20:43:00,
2013-02-05 12:48:00,45.4,31.5,29.91,North,360,15.0,15.0,58,0.00,CLR,,0.00,517.0,WeatherDisplay:10.37,2013-02-05 20:48:00,
2013-02-05 12:53:00,45.7,30.9,29.91,North,360,20.0,20.0,56,0.00,CLR,,0.00,513.0,WeatherDisplay:10.37,2013-02-05 20:53:00,
2013-02-05 12:58:00,45.9,28.3,29.91,North,360,19.6,19.6,50,0.00,CLR,,0.00,517.0,WeatherDisplay:10.37,2013-02-05 20:58:00,
2013-02-05 13:03:00,46.0,28.4,29.91,North,360,23.0,23.0,50,0.00,CLR,,0.00,512.0,WeatherDisplay:10.37,2013-02-05 21:03:00,
2013-02-05 13:08:00,46.0,27.4,29.90,North,360,19.6,19.6,48,0.00,CLR,,0.00,510.0,WeatherDisplay:10.37,2013-02-05 21:08:00,
2013-02-05 13:13:00,46.3,26.1,29.90,North,360,23.0,23.0,45,0.00,CLR,,0.00,512.0,WeatherDisplay:10.37,2013-02-05 21:13:00,
2013-02-05 13:18:00,46.5,26.3,29.91,North,360,19.6,19.6,45,0.00,CLR,,0.00,501.0,WeatherDisplay:10.37,2013-02-05 21:18:00,
2013-02-05 13:23:00,46.6,26.4,29.90,North,360,19.6,19.6,45,0.00,CLR,,0.00,494.0,WeatherDisplay:10.37,2013-02-05 21:23:00,
2013-02-05 13:28:00,46.7,25.4,29.90,North,360,19.0,19.0,43,0.00,CLR,,0.00,487.0,WeatherDisplay:10.37,2013-02-05 21:28:00,
2013-02-05 13:33:00,46.7,23.0,29.90,North,360,23.0,23.0,39,0.00,CLR,,0.00,487.0,WeatherDisplay:10.37,2013-02-05 21:33:00,
2013-02-05 13:38:00,46.8,24.3,29.89,North,360,19.6,19.6,41,0.00,CLR,,0.00,480.0,WeatherDisplay:10.37,2013-02-05 21:38:00,
2013-02-05 13:43:00,46.8,24.9,29.89,North,360,23.0,23.0,42,0.00,CLR,,0.00,471.0,WeatherDisplay:10.37,2013-02-05 21:43:00,
2013-02-05 13:48:00,46.8,25.5,29.89,North,360,21.9,21.9,43,0.00,CLR,,0.00,466.0,WeatherDisplay:10.37,2013-02-05 21:48:00,
2013-02-05 13:53:00,46.9,25.5,29.89,North,360,18.4,18.4,43,0.00,CLR,,0.00,457.0,WeatherDisplay:10.37,2013-02-05 21:53:00,
2013-02-05 13:58:00,47.0,26.2,29.89,North,360,24.0,24.0,44,0.00,CLR,,0.00,454.0,WeatherDisplay:10.37,2013-02-05 21:58:00,
2013-02-05 14:03:00,47.0,26.2,29.89,North,360,26.5,26.5,44,0.00,CLR,,0.00,448.0,WeatherDisplay:10.37,2013-02-05 22:03:00,
2013-02-05 14:08:00,46.8,26.0,29.89,North,360,23.0,23.0,44,0.00,CLR,,0.00,441.0,WeatherDisplay:10.37,2013-02-05 22:08:00,
2013-02-05 14:14:00,46.7,27.0,29.89,North,360,19.6,19.6,46,0.00,CLR,,0.00,431.0,WeatherDisplay:10.37,2013-02-05 22:14:00,
2013-02-05 14:19:00,46.5,26.8,29.90,North,360,21.9,21.9,46,0.00,CLR,,0.00,431.0,WeatherDisplay:10.37,2013-02-05 22:19:00,
2013-02-05 14:24:00,46.3,25.6,29.90,North,360,24.2,24.2,44,0.00,CLR,,0.00,422.0,WeatherDisplay:10.37,2013-02-05 22:24:00,
2013-02-05 14:29:00,46.2,25.5,29.90,North,360,26.0,26.0,44,0.00,CLR,,0.00,429.0,WeatherDisplay:10.37,2013-02-05 22:29:00,
2013-02-05 14:34:00,45.8,25.6,29.90,North,360,20.0,20.0,45,0.00,FEW,,0.00,109.0,WeatherDisplay:10.37,2013-02-05 22:34:00,
2013-02-05 14:39:00,45.3,23.5,29.90,North,360,21.9,21.9,42,0.00,SCT,,0.00,74.0,WeatherDisplay:10.37,2013-02-05 22:39:00,
2013-02-05 14:44:00,45.3,23.5,29.90,North,360,19.6,19.6,42,0.00,SCT,,0.00,381.0,WeatherDisplay:10.37,2013-02-05 22:44:00,
2013-02-05 14:49:00,45.5,22.5,29.90,North,360,25.3,25.3,40,0.00,CLR,,0.00,362.0,WeatherDisplay:10.37,2013-02-05 22:49:00,
2013-02-05 14:54:00,45.6,22.0,29.91,North,360,23.0,23.0,39,0.00,CLR,,0.00,355.0,WeatherDisplay:10.37,2013-02-05 22:54:00,
2013-02-05 14:59:00,45.7,22.1,29.91,North,360,27.0,27.0,39,0.00,CLR,,0.00,346.0,WeatherDisplay:10.37,2013-02-05 22:59:00,
2013-02-05 15:04:00,45.6,22.0,29.91,North,360,33.4,33.4,39,0.00,CLR,,0.00,330.0,WeatherDisplay:10.37,2013-02-05 23:04:00,
2013-02-05 15:09:00,45.4,22.5,29.91,North,360,32.2,32.2,40,0.00,CLR,,0.00,330.0,WeatherDisplay:10.37,2013-02-05 23:09:00,
2013-02-05 15:14:00,45.3,23.5,29.91,North,360,25.0,25.0,42,0.00,CLR,,0.00,309.0,WeatherDisplay:10.37,2013-02-05 23:14:00,
2013-02-05 15:19:00,45.2,23.4,29.91,North,360,25.3,25.3,42,0.00,CLR,,0.00,294.0,WeatherDisplay:10.37,2013-02-05 23:19:00,
2013-02-05 15:24:00,45.3,22.4,29.91,North,360,26.5,26.5,40,0.00,CLR,,0.00,279.0,WeatherDisplay:10.37,2013-02-05 23:24:00,
2013-02-05 15:29:00,45.2,22.3,29.91,North,360,26.5,26.5,40,0.00,CLR,,0.00,213.0,WeatherDisplay:10.37,2013-02-05 23:29:00,
2013-02-05 15:34:00,45.0,23.3,29.91,North,360,20.0,20.0,42,0.00,CLR,,0.00,269.0,WeatherDisplay:10.37,2013-02-05 23:34:00,
2013-02-05 15:39:00,44.7,24.1,29.92,North,360,24.2,24.2,44,0.00,CLR,,0.00,169.0,WeatherDisplay:10.37,2013-02-05 23:39:00,
2013-02-05 15:44:00,44.4,23.8,29.92,North,360,28.8,28.8,44,0.00,CLR,,0.00,169.0,WeatherDisplay:10.37,2013-02-05 23:44:00,
2013-02-05 15:49:00,44.0,24.0,29.92,North,360,23.0,23.0,45,0.00,SCT,,0.00,47.0,WeatherDisplay:10.37,2013-02-05 23:49:00,
2013-02-05 15:55:00,43.9,24.9,29.92,North,360,18.0,22.0,47,0.00,SCT,,0.00,63.0,WeatherDisplay:10.37,2013-02-05 23:55:00,
2013-02-05 16:00:00,43.8,24.9,29.93,North,360,14.0,21.0,47,0.00,SCT,,0.00,62.0,WeatherDisplay:10.37,2013-02-06 00:00:00,
2013-02-05 16:05:00,43.7,24.8,29.93,North,360,17.0,22.0,47,0.00,SCT,,0.00,65.0,WeatherDisplay:10.37,2013-02-06 00:05:00,
2013-02-05 16:10:00,43.7,25.3,29.93,North,360,10.0,15.0,48,0.00,SCT,,0.00,72.0,WeatherDisplay:10.37,2013-02-06 00:10:00,
2013-02-05 16:15:00,43.6,25.2,29.93,North,360,16.0,16.0,48,0.00,SCT,,0.00,62.0,WeatherDisplay:10.37,2013-02-06 00:15:00,
2013-02-05 16:20:00,43.6,26.2,29.93,North,360,13.8,13.8,50,0.00,SCT,,0.00,51.0,WeatherDisplay:10.37,2013-02-06 00:20:00,
2013-02-05 16:25:00,43.6,26.2,29.93,North,360,12.7,12.7,50,0.00,SCT,,0.00,42.0,WeatherDisplay:10.37,2013-02-06 00:25:00,
2013-02-05 16:30:00,43.5,26.6,29.94,North,360,22.0,22.0,51,0.00,SCT,,0.00,81.0,WeatherDisplay:10.37,2013-02-06 00:30:00,
2013-02-05 16:35:00,43.6,26.6,29.93,North,360,18.4,18.4,51,0.00,CLR,,0.00,81.0,WeatherDisplay:10.37,2013-02-06 00:35:00,
2013-02-05 16:40:00,43.6,26.6,29.94,North,360,13.8,13.8,51,0.00,SCT,,0.00,37.0,WeatherDisplay:10.37,2013-02-06 00:40:00,
2013-02-05 16:45:00,43.4,26.5,29.94,North,360,18.4,18.4,51,0.00,SCT,,0.00,32.0,WeatherDisplay:10.37,2013-02-06 00:45:00,
2013-02-05 16:50:00,43.2,26.7,29.94,North,360,18.0,18.0,52,0.00,SCT,,0.00,35.0,WeatherDisplay:10.37,2013-02-06 00:50:00,
2013-02-05 16:55:00,43.0,27.0,29.94,North,360,16.1,16.1,53,0.00,SCT,,0.00,30.0,WeatherDisplay:10.37,2013-02-06 00:55:00,
2013-02-05 17:00:00,42.9,26.9,29.94,North,360,13.0,13.0,53,0.00,SCT,,0.00,19.0,WeatherDisplay:10.37,2013-02-06 01:00:00,
2013-02-05 17:05:00,42.7,27.6,29.95,North,360,18.4,18.4,55,0.00,SCT,,0.00,16.0,WeatherDisplay:10.37,2013-02-06 01:05:00,
2013-02-05 17:10:00,42.3,27.7,29.95,North,360,18.4,18.4,56,0.00,CLR,,0.00,16.0,WeatherDisplay:10.37,2013-02-06 01:10:00,
2013-02-05 17:15:00,42.0,28.3,29.95,North,360,19.0,19.0,58,0.00,CLR,,0.00,9.0,WeatherDisplay:10.37,2013-02-06 01:15:00,
2013-02-05 17:20:00,41.4,28.9,29.95,North,360,11.0,11.0,61,0.00,OVC,,0.00,5.0,WeatherDisplay:10.37,2013-02-06 01:20:00,
2013-02-05 17:25:00,40.9,29.3,29.95,North,360,14.0,14.0,63,0.00,CLR,,0.00,5.0,WeatherDisplay:10.37,2013-02-06 01:25:00,
2013-02-05 17:30:00,40.5,28.9,29.95,North,360,12.7,12.7,63,0.00,CLR,,0.00,0.0,WeatherDisplay:10.37,2013-02-06 01:30:00,
2013-02-05 17:35:00,40.2,29.0,29.95,North,360,16.1,16.1,64,0.00,CLR,,0.00,0.0,WeatherDisplay:10.37,2013-02-06 01:35:00,
2013-02-05 17:40:00,40.0,29.2,29.95,North,360,13.0,13.0,65,0.00,CLR,,0.00,0.0,WeatherDisplay:10.37,2013-02-06 01:40:00,
2013-02-05 17:45:00,39.8,28.6,29.95,North,360,16.1,16.1,64,0.00,CLR,,0.00,0.0,WeatherDisplay:10.37,2013-02-06 01:45:00,
2013-02-05 17:50:00,39.6,29.2,29.96,North,360,13.0,13.0,66,0.00,CLR,,0.00,0.0,WeatherDisplay:10.37,2013-02-06 01:50:00,
2013-02-05 17:55:00,39.5,29.1,29.96,North,360,11.5,11.5,66,0.00,CLR,,0.00,0.0,WeatherDisplay:10.37,2013-02-06 01:55:00,
2013-02-05 18:00:00,39.3,29.3,29.96,North,360,11.0,11.0,67,0.00,CLR,,0.00,0.0,WeatherDisplay:10.37,2013-02-06 02:00:00,
2013-02-05 18:05:00,39.1,29.1,29.96,North,360,15.0,15.0,67,0.00,CLR,,0.00,0.0,WeatherDisplay:10.37,2013-02-06 02:05:00,
2013-02-05 18:10:00,39.1,28.7,29.96,North,360,11.5,11.5,66,0.00,CLR,,0.00,0.0,WeatherDisplay:10.37,2013-02-06 02:10:00,
2013-02-05 18:15:00,39.1,28.3,29.96,North,360,11.5,11.5,65,0.00,CLR,,0.00,0.0,WeatherDisplay:10.37,2013-02-06 02:15:00,
2013-02-05 18:20:00,39.1,27.6,29.96,North,360,11.5,11.5,63,0.00,CLR,,0.00,0.0,WeatherDisplay:10.37,2013-02-06 02:20:00,
2013-02-05 18:25:00,39.2,27.7,29.96,North,360,11.5,11.5,63,0.00,CLR,,0.00,0.0,WeatherDisplay:10.37,2013-02-06 02:25:00,
2013-02-05 18:30:00,39.1,28.3,29.96,North,360,4.6,4.6,65,0.00,CLR,,0.00,0.0,WeatherDisplay:10.37,2013-02-06 02:30:00,
2013-02-05 18:35:00,38.9,28.5,29.97,North,360,1.1,1.1,66,0.00,CLR,,0.00,0.0,WeatherDisplay:10.37,2013-02-06 02:35:00,
2013-02-05 18:40:00,38.6,28.2,29.97,North,360,2.3,2.3,66,0.00,CLR,,0.00,0.0,WeatherDisplay:10.37,2013-02-06 02:40:00,
2013-02-05 18:45:00,38.2,28.6,29.98,North,360,2.3,2.3,68,0.00,CLR,,0.00,0.0,WeatherDisplay:10.37,2013-02-06 02:45:00,
2013-02-05 18:50:00,38.0,28.4,29.98,North,360,0.0,0.0,68,0.00,CLR,,0.00,0.0,WeatherDisplay:10.37,2013-02-06 02:50:00,
2013-02-05 18:56:00,37.7,28.4,29.98,North,360,3.5,3.5,69,0.00,CLR,,0.00,0.0,WeatherDisplay:10.37,2013-02-06 02:56:00,
2013-02-05 19:01:00,37.3,28.4,29.98,North,360,3.0,3.0,70,0.00,CLR,,0.00,0.0,WeatherDisplay:10.37,2013-02-06 03:01:00,
2013-02-05 19:06:00,37.1,28.2,29.98,North,360,3.5,3.5,70,0.00,CLR,,0.00,0.0,WeatherDisplay:10.37,2013-02-06 03:06:00,
2013-02-05 19:11:00,36.9,28.0,29.98,North,360,2.3,2.3,70,0.00,CLR,,0.00,0.0,WeatherDisplay:10.37,2013-02-06 03:11:00,
2013-02-05 19:16:00,36.8,27.9,29.98,North,360,4.0,4.0,70,0.00,CLR,,0.00,0.0,WeatherDisplay:10.37,2013-02-06 03:16:00,
2013-02-05 19:21:00,36.6,27.7,29.99,North,360,3.5,3.5,70,0.00,CLR,,0.00,0.0,WeatherDisplay:10.37,2013-02-06 03:21:00,
2013-02-05 19:26:00,36.3,27.8,29.99,North,360,4.6,4.6,71,0.00,CLR,,0.00,0.0,WeatherDisplay:10.37,2013-02-06 03:26:00,
2013-02-05 19:31:00,36.1,27.6,29.98,North,360,7.0,7.0,71,0.00,CLR,,0.00,0.0,WeatherDisplay:10.37,2013-02-06 03:31:00,
2013-02-05 19:36:00,36.0,27.8,29.99,North,360,3.5,3.5,72,0.00,CLR,,0.00,0.0,WeatherDisplay:10.37,2013-02-06 03:36:00,
2013-02-05 19:41:00,36.0,28.2,29.99,North,360,9.0,9.0,73,0.00,CLR,,0.00,0.0,WeatherDisplay:10.37,2013-02-06 03:41:00,
2013-02-05 19:46:00,36.1,28.6,29.99,North,360,4.6,4.6,74,0.00,CLR,,0.00,0.0,WeatherDisplay:10.37,2013-02-06 03:46:00,
2013-02-05 19:51:00,36.2,28.4,29.99,North,360,4.0,4.0,73,0.00,CLR,,0.00,0.0,WeatherDisplay:10.37,2013-02-06 03:51:00,
2013-02-05 19:56:00,36.3,28.8,29.99,North,360,10.4,10.4,74,0.00,CLR,,0.00,0.0,WeatherDisplay:10.37,2013-02-06 03:56:00,
2013-02-05 20:01:00,36.5,28.7,29.99,North,360,7.0,7.0,73,0.00,CLR,,0.00,0.0,WeatherDisplay:10.37,2013-02-06 04:01:00,
2013-02-05 20:06:00,36.6,28.8,29.99,North,360,5.8,5.8,73,0.00,CLR,,0.00,0.0,WeatherDisplay:10.37,2013-02-06 04:06:00,
2013-02-05 20:11:00,36.7,28.9,29.99,North,360,11.5,11.5,73,0.00,CLR,,0.00,0.0,WeatherDisplay:10.37,2013-02-06 04:11:00,
2013-02-05 20:16:00,36.8,29.0,29.99,North,360,9.2,9.2,73,0.00,CLR,,0.00,0.0,WeatherDisplay:10.37,2013-02-06 04:16:00,
2013-02-05 20:21:00,36.9,28.7,29.99,North,360,11.5,11.5,72,0.00,CLR,,0.00,0.0,WeatherDisplay:10.37,2013-02-06 04:21:00,
2013-02-05 20:26:00,36.9,28.7,29.99,North,360,10.4,10.4,72,0.00,CLR,,0.00,0.0,WeatherDisplay:10.37,2013-02-06 04:26:00,
2013-02-05 20:31:00,36.9,28.7,29.99,North,360,11.5,11.5,72,0.00,CLR,,0.00,0.0,WeatherDisplay:10.37,2013-02-06 04:31:00,
2013-02-05 20:36:00,36.9,28.4,30.00,North,360,11.5,11.5,71,0.00,CLR,,0.00,0.0,WeatherDisplay:10.37,2013-02-06 04:36:00,
2013-02-05 20:41:00,36.9,28.4,30.00,North,360,6.9,6.9,71,0.00,CLR,,0.00,0.0,WeatherDisplay:10.37,2013-02-06 04:41:00,
2013-02-05 20:46:00,36.9,28.7,30.00,North,360,6.9,6.9,72,0.00,CLR,,0.00,0.0,WeatherDisplay:10.37,2013-02-06 04:46:00,
2013-02-05 20:51:00,36.8,28.6,30.00,North,360,11.0,11.0,72,0.00,CLR,,0.00,0.0,WeatherDisplay:10.37,2013-02-06 04:51:00,
2013-02-05 20:56:00,36.7,28.2,30.00,North,360,11.5,11.5,71,0.00,CLR,,0.00,0.0,WeatherDisplay:10.37,2013-02-06 04:56:00,
2013-02-05 21:00:00,36.7,28.5,30.00,North,360,8.1,8.1,72,0.00,CLR,,0.00,0.0,WeatherDisplay:10.37,2013-02-06 05:00:00,
2013-02-05 21:01:00,36.7,28.5,30.00,North,360,5.8,5.8,72,0.00,CLR,,0.00,0.0,WeatherDisplay:10.37,2013-02-06 05:01:00,
2013-02-05 21:03:00,36.7,28.5,30.00,North,360,5.8,5.8,72,0.00,CLR,,0.00,0.0,WeatherDisplay:10.37,2013-02-06 05:03:00,
2013-02-05 21:08:00,36.6,28.4,30.00,North,360,11.0,11.0,72,0.00,CLR,,0.00,0.0,WeatherDisplay:10.37,2013-02-06 05:08:00,
2013-02-05 21:13:00,36.5,28.3,30.00,North,360,4.6,4.6,72,0.00,CLR,,0.00,0.0,WeatherDisplay:10.37,2013-02-06 05:13:00,
2013-02-05 21:18:00,36.4,28.2,30.01,North,360,10.4,10.4,72,0.00,CLR,,0.00,0.0,WeatherDisplay:10.37,2013-02-06 05:18:00,
2013-02-05 21:23:00,36.4,28.2,30.01,North,360,10.4,10.4,72,0.00,CLR,,0.00,0.0,WeatherDisplay:10.37,2013-02-06 05:23:00,
2013-02-05 21:28:00,36.5,28.7,30.01,North,360,11.5,11.5,73,0.00,CLR,,0.00,0.0,WeatherDisplay:10.37,2013-02-06 05:28:00,
2013-02-05 21:33:00,36.5,29.0,30.01,North,360,11.5,11.5,74,0.00,CLR,,0.00,0.0,WeatherDisplay:10.37,2013-02-06 05:33:00,
2013-02-05 21:38:00,36.4,28.9,30.02,North,360,10.4,10.4,74,0.00,CLR,,0.00,0.0,WeatherDisplay:10.37,2013-02-06 05:38:00,
2013-02-05 21:43:00,36.3,29.1,30.03,North,360,10.4,10.4,75,0.00,CLR,,0.00,0.0,WeatherDisplay:10.37,2013-02-06 05:43:00,
2013-02-05 21:48:00,36.2,29.4,30.03,North,360,10.4,10.4,76,0.00,CLR,,0.00,0.0,WeatherDisplay:10.37,2013-02-06 05:48:00,
2013-02-05 21:53:00,36.0,28.8,30.03,North,360,8.1,8.1,75,0.00,CLR,,0.00,0.0,WeatherDisplay:10.37,2013-02-06 05:53:00,
2013-02-05 21:58:00,35.8,28.6,30.03,North,360,4.6,4.6,75,0.00,CLR,,0.00,0.0,WeatherDisplay:10.37,2013-02-06 05:58:00,
2013-02-05 22:03:00,36.0,27.5,30.03,North,360,16.1,16.1,71,0.00,CLR,,0.00,0.0,WeatherDisplay:10.37,2013-02-06 06:03:00,
2013-02-05 22:08:00,36.4,26.1,30.03,North,360,16.1,16.1,66,0.00,CLR,,0.00,0.0,WeatherDisplay:10.37,2013-02-06 06:08:00,
2013-02-05 22:13:00,36.8,26.1,30.03,North,360,9.0,9.0,65,0.00,CLR,,0.00,0.0,WeatherDisplay:10.37,2013-02-06 06:13:00,
2013-02-05 22:18:00,36.8,28.6,30.03,North,360,9.2,9.2,72,0.00,CLR,,0.00,0.0,WeatherDisplay:10.37,2013-02-06 06:18:00,
2013-02-05 22:23:00,36.4,28.6,30.03,North,360,6.0,6.0,73,0.00,CLR,,0.00,0.0,WeatherDisplay:10.37,2013-02-06 06:23:00,
2013-02-05 22:28:00,36.0,28.5,30.03,North,360,9.0,9.0,74,0.00,CLR,,0.00,0.0,WeatherDisplay:10.37,2013-02-06 06:28:00,
2013-02-05 22:33:00,35.7,28.6,30.04,North,360,6.0,6.0,75,0.00,CLR,,0.00,0.0,WeatherDisplay:10.37,2013-02-06 06:33:00,
2013-02-05 22:38:00,35.5,28.4,30.04,North,360,5.8,5.8,75,0.00,CLR,,0.00,0.0,WeatherDisplay:10.37,2013-02-06 06:38:00,
2013-02-05 22:43:00,35.3,28.2,30.04,North,360,11.0,11.0,75,0.00,CLR,,0.00,0.0,WeatherDisplay:10.37,2013-02-06 06:43:00,
2013-02-05 22:48:00,35.3,27.8,30.04,North,360,11.5,11.5,74,0.00,CLR,,0.00,0.0,WeatherDisplay:10.37,2013-02-06 06:48:00,
2013-02-05 22:53:00,35.3,27.8,30.04,North,360,7.0,7.0,74,0.00,CLR,,0.00,0.0,WeatherDisplay:10.37,2013-02-06 06:53:00,
2013-02-05 22:58:00,35.2,27.7,30.04,North,360,11.5,11.5,74,0.00,CLR,,0.00,0.0,WeatherDisplay:10.37,2013-02-06 06:58:00,
2013-02-05 23:03:00,35.2,27.7,30.05,North,360,9.0,9.0,74,0.00,CLR,,0.00,0.0,WeatherDisplay:10.37,2013-02-06 07:03:00,
2013-02-05 23:08:00,35.2,28.1,30.05,North,360,6.9,6.9,75,0.00,CLR,,0.00,0.0,WeatherDisplay:10.37,2013-02-06 07:08:00,
2013-02-05 23:13:00,35.2,27.7,30.05,North,360,4.6,4.6,74,0.00,CLR,,0.00,0.0,WeatherDisplay:10.37,2013-02-06 07:13:00,
2013-02-05 23:18:00,35.3,28.2,30.05,North,360,3.0,3.0,75,0.00,CLR,,0.00,0.0,WeatherDisplay:10.37,2013-02-06 07:18:00,
2013-02-05 23:23:00,35.3,28.2,30.05,North,360,4.0,4.0,75,0.00,CLR,,0.00,0.0,WeatherDisplay:10.37,2013-02-06 07:23:00,
2013-02-05 23:28:00,35.3,28.2,30.05,North,360,4.6,4.6,75,0.00,CLR,,0.00,0.0,WeatherDisplay:10.37,2013-02-06 07:28:00,
2013-02-05 23:33:00,35.2,28.1,30.05,North,360,3.5,3.5,75,0.00,CLR,,0.00,0.0,WeatherDisplay:10.37,2013-02-06 07:33:00,
2013-02-05 23:38:00,35.1,28.0,30.05,North,360,4.6,4.6,75,0.00,CLR,,0.00,0.0,WeatherDisplay:10.37,2013-02-06 07:38:00,
2013-02-05 23:43:00,34.9,27.8,30.05,North,360,5.0,5.0,75,0.00,CLR,,0.00,0.0,WeatherDisplay:10.37,2013-02-06 07:43:00,
2013-02-05 23:48:00,34.8,27.7,30.05,North,360,7.0,7.0,75,0.00,CLR,,0.00,0.0,WeatherDisplay:10.37,2013-02-06 07:48:00,
2013-02-05 23:53:00,34.7,27.6,30.05,North,360,6.9,6.9,75,0.00,CLR,,0.00,0.0,WeatherDisplay:10.37,2013-02-06 07:53:00,
2013-02-05 23:58:00,34.7,27.6,30.05,North,360,6.9,6.9,75,0.00,CLR,,0.00,0.0,WeatherDisplay:10.37,2013-02-06 07:58:00,